Vorticity
nan nan nan nan nan nan nan nan nan nan nan nan nan nan nan nan nan nan nan nan nan nan nan nan nan nan nan nan nan nan nan nan nan nan nan nan nan nan nan nan nan nan nan
nan 11 11 9 8 7 7 8 8 7 5 4 6 9 10 9 9 9 9 7 7 6 7 7 7 7 7 7 8 8 7 6 7 10 8 10 11 10 10 10 9 8 nan
nan 11 11 8 7 8 8 8 8 6 6 5 4 6 7 8 10 9 9 8 8 7 7 7 7 8 8 8 8 9 8 7 7 8 10 10 7 10 11 9 9 9 nan
nan 10 11 10 8 8 7 8 9 8 8 7 5 5 3 6 8 8 8 9 9 8 7 8 8 7 7 9 9 9 8 8 8 7 8 8 8 9 9 8 7 8 nan
nan 8 10 11 8 9 8 8 8 8 8 7 6 6 4 4 9 10 9 9 10 9 8 8 8 7 8 9 9 9 9 7 8 9 7 7 8 8 7 5 7 9 nan
nan 9 9 11 11 9 9 9 8 8 8 8 7 5 5 5 6 7 8 9 9 10 9 8 7 7 8 8 8 8 8 7 7 9 8 6 7 8 8 7 5 8 nan
nan 9 6 7 10 8 10 9 8 7 8 7 7 8 6 7 6 5 7 8 7 8 10 8 7 7 7 7 8 9 8 7 7 7 7 8 8 7 7 7 8 8 nan
nan 9 7 6 9 9 7 8 8 8 9 8 8 8 7 7 9 7 7 8 8 9 9 8 7 7 7 7 7 8 9 9 8 7 6 8 10 9 7 7 7 9 nan
nan 10 9 8 7 10 9 9 9 8 8 8 9 9 8 7 7 8 7 7 8 10 11 9 8 7 8 8 7 8 8 8 8 8 8 7 8 9 9 8 7 7 nan
nan 12 10 8 8 9 10 7 10 11 8 8 8 9 9 8 6 8 8 7 7 9 10 9 8 8 8 9 8 7 7 7 7 8 8 7 7 9 9 9 9 8 nan
nan 12 10 11 11 11 11 9 8 9 10 9 9 9 9 9 8 8 8 8 8 9 10 10 9 8 8 9 8 7 8 8 6 7 8 7 8 7 8 9 8 10 nan
nan 13 13 12 12 10 10 9 8 9 8 11 11 10 9 9 8 8 8 8 8 8 8 9 9 9 9 9 10 9 9 7 7 7 8 8 8 8 9 9 9 9 nan
nan 14 14 13 12 12 11 12 9 10 10 6 7 12 10 9 9 9 9 8 8 8 8 8 8 8 9 10 10 9 8 8 8 9 10 9 8 10 11 9 10 10 nan
nan 11 12 13 15 15 14 14 12 11 10 8 6 7 10 10 10 10 10 9 7 8 8 8 8 8 9 10 10 10 9 8 8 11 11 12 13 11 10 11 11 10 nan
nan 9 10 11 13 13 13 16 17 14 14 10 9 7 9 10 10 10 10 10 10 10 9 8 8 8 10 13 12 8 8 10 9 10 15 17 14 10 12 15 14 12 nan
nan 6 8 9 9 10 11 12 12 15 15 14 12 10 9 10 10 11 11 9 9 9 11 9 9 7 8 14 11 9 10 11 11 13 14 12 11 9 9 12 12 15 nan
nan 8 8 7 7 7 9 9 11 12 12 13 13 12 11 9 9 9 11 11 9 9 9 11 11 10 10 14 12 10 10 12 14 16 13 7 7 10 10 10 7 7 nan
nan 10 8 7 7 7 7 8 10 10 11 11 11 12 12 11 12 11 11 10 11 10 10 11 10 10 14 13 12 12 12 13 14 13 12 11 7 10 13 12 8 6 nan
nan 10 9 8 6 6 6 8 8 8 9 10 10 11 11 14 14 11 11 11 13 14 13 13 14 11 13 11 11 10 11 10 8 10 13 11 6 7 15 17 13 9 nan
nan 10 8 7 7 6 8 9 7 8 10 11 12 12 12 11 12 14 14 13 12 13 15 17 18 18 14 10 8 7 8 8 7 8 6 9 10 8 13 14 11 7 nan
nan 8 8 9 9 8 10 9 8 9 9 10 14 15 17 21 16 13 17 13 13 15 14 15 17 16 14 13 9 7 7 9 9 8 7 6 7 7 8 9 11 8 nan
nan 8 9 10 9 9 11 9 6 8 11 12 13 14 17 27 27 19 15 14 15 13 9 7 9 11 13 17 22 17 15 13 10 8 8 7 4 7 11 13 10 12 nan
nan 10 10 10 9 10 12 8 7 8 9 10 12 13 15 15 24 28 15 15 12 10 9 9 8 9 10 12 13 13 16 15 11 11 10 8 8 11 11 11 14 12 nan
nan 12 11 11 10 11 12 11 7 9 9 8 12 11 13 13 14 18 17 17 16 14 12 11 10 9 10 8 5 5 5 7 12 11 7 10 12 13 12 8 7 11 nan
nan 13 12 12 12 12 12 12 7 8 10 8 9 10 11 12 11 13 16 20 21 24 22 17 16 14 12 13 12 14 10 5 5 8 12 12 11 12 9 10 11 11 nan
nan nan nan nan nan nan nan nan nan nan nan nan nan nan nan nan nan nan nan nan nan nan nan nan nan nan nan nan nan nan nan nan nan nan nan nan nan nan nan nan nan nan nan
CAPE
99 157 217 263 255 302 377 604 822 1102 999 768 721 1017 995 1107 949 1286 1384 1477 1840 1989 2162 1622 1538 1369 1384 1174 1164 1336 641 1070 1225 1084 999 862 727 706 688 675 620 530 347
67 50 105 211 212 306 321 551 880 1167 895 866 686 675 1048 1056 1107 1310 1468 1376 1511 1910 2038 1997 1448 1081 670 796 1218 1495 735 602 1157 1097 1279 967 926 901 636 511 506 543 336
140 104 138 222 210 254 366 578 825 967 1020 877 637 1096 1232 1166 1187 1369 1327 1419 1493 1798 2276 1980 1421 910 527 561 1067 939 644 500 644 896 894 608 431 543 432 417 244 327 377
184 98 295 286 223 262 414 543 651 911 1020 996 824 966 1107 1146 1191 1286 1350 1357 1541 1774 1885 2138 1632 1056 603 1055 1106 1078 785 820 638 568 276 506 491 473 314 758 455 749 851
220 137 259 335 336 331 443 606 596 826 1128 1081 1224 1115 1299 1227 1355 1151 1404 1502 1773 1966 1720 2094 1900 1280 869 927 1712 408 1314 964 1060 179 344 319 423 627 991 486 593 811 974
274 152 134 287 419 410 490 652 800 966 1167 1180 1261 1431 1474 1540 1273 1334 1160 1262 1411 1679 2043 2101 2158 1725 1325 644 970 1297 1616 1314 1412 572 378 949 1090 1093 1194 1098 854 803 824
265 219 179 108 415 410 536 688 963 1109 1106 1081 1161 1467 1485 1604 1605 1917 1330 1384 1331 1271 1572 2155 2439 1928 1738 1198 1008 2117 2320 1790 1882 2116 1482 1309 1416 1375 1362 1274 730 831 549
269 283 297 345 618 634 691 746 913 1160 1115 1172 1317 1644 1581 1381 1251 1364 1242 1288 1275 1322 1652 1921 2191 2280 2105 1792 1822 2084 2284 2148 2596 2209 2246 1621 1670 1571 1717 1508 1279 660 473
303 369 329 431 597 518 775 919 983 1102 1104 1077 1345 1551 1627 1540 1292 1463 1420 1080 1281 1066 1637 1592 1914 2022 2146 2121 2056 1924 2545 2197 2226 1994 2084 1931 1514 1774 2216 1731 1471 1112 699
439 437 437 470 617 689 784 603 759 1063 1105 1027 1106 1176 1243 1406 1493 1561 1520 1296 1244 1543 1323 1481 1489 1720 1764 1976 2099 1702 1860 2201 2113 1783 2062 2103 1602 1618 1783 1788 2065 1309 1226
815 566 605 639 700 759 720 831 740 933 1052 1085 1124 1131 1123 1117 1199 1299 1431 1460 1443 1604 1586 1625 1628 1614 1742 1888 2187 2062 1713 2073 2188 2184 2061 2040 2068 1540 1395 2099 2081 2396 2049
925 830 681 740 705 816 808 695 824 781 911 1081 1384 1177 1195 1247 1152 1366 1441 1530 1479 1440 1580 1696 1732 1781 1767 2027 2137 1839 1568 2067 1992 2078 2076 2084 2059 2016 2215 2724 2071 1438 1987
892 897 862 744 755 756 867 787 767 654 676 995 601 999 1008 1188 1234 1280 1454 1560 1576 1617 1430 1467 1739 1904 2015 1909 2015 2016 2061 1929 2037 1894 1823 1857 1942 2126 2290 2107 2154 2132 1437
849 981 878 849 795 808 864 833 793 783 693 989 1069 1006 957 1083 1113 1669 1739 1484 1671 1596 1599 1625 1568 1666 1932 1849 1997 1813 1930 1902 1640 2023 2102 1899 1729 1725 1020 1564 1794 1645 1613
856 894 898 852 774 751 736 942 1098 880 749 857 1028 1351 1254 909 1180 1129 1262 1202 1324 1555 1793 1993 1645 1718 2141 1714 1771 1931 1925 1878 1805 1842 1739 1667 750 481 255 1442 1575 1611 1348
777 717 580 226 86 158 317 713 778 886 1338 967 1005 1263 1396 1070 1130 1429 1303 1118 1088 1266 1309 1422 1517 2082 1894 1086 540 843 1534 1910 1957 1754 1620 862 125 5 0 0 0 0 409
757 629 294 37 83 7 2 23 54 354 467 895 1069 1316 1433 1380 1604 1398 1428 1164 1157 1232 1272 1329 1457 1692 2244 497 285 168 1803 2034 1698 1528 1429 561 0 0 246 3 0 0 0
553 251 171 36 3 4 36 88 148 193 253 290 338 409 550 1003 1298 1459 1319 1193 1063 1054 1173 1230 1593 1480 1887 0 0 0 1379 1189 592 457 325 75 0 0 0 122 134 0 0
215 56 7 4 4 6 2 2 67 45 13 5 5 7 36 266 563 790 1236 1395 1008 1135 1135 1031 1591 1402 390 1 1 0 646 61 8 3 0 0 0 0 0 0 25 4 0
0 2 1 2 2 3 3 2 1 9 3 5 6 10 13 10 12 336 257 512 958 1082 1084 1008 1099 760 5 1 1 0 8 10 7 1 0 0 0 0 0 0 0 0 0
2 1 0 2 2 2 6 6 17 18 11 5 12 12 10 9 14 11 127 180 165 116 11 2 7 7 7 3 1 0 11 10 10 5 0 0 0 0 0 0 0 0 0
1 0 0 2 2 0 14 91 31 20 5 9 9 9 6 7 4 13 45 25 5 3 1 1 5 4 5 1 1 0 1 1 1 0 0 0 0 0 0 0 0 0 0
6 2 0 3 2 0 69 146 49 58 48 11 6 6 4 2 2 8 9 3 1 1 2 1 1 2 2 1 0 1 0 0 2 4 0 0 0 0 0 0 0 0 0
3 1 1 2 10 5 42 240 98 115 145 7 4 4 7 2 0 1 3 1 1 1 1 1 2 2 1 1 1 1 1 0 1 0 0 0 0 0 0 0 0 0 0
0 0 4 6 6 7 35 96 48 123 158 6 6 4 7 6 2 1 0 1 0 1 3 5 3 2 1 0 0 0 0 0 0 0 0 0 0 0 0 0 0 0 0
0 2 3 4 4 6 9 49 123 89 39 2 2 4 2 4 3 0 0 0 0 0 1 1 0 0 0 0 0 0 0 0 0 0 0 0 0 0 0 0 0 0 0